Weather History for KRPJ - October, 2012

Change the Weather History Date:

Wednesday, October 10, 2012

  Actual Average (KRFD) Record (KRFD)
Temperature  
Mean Temperature 40 °F 54 °F  
Max Temperature 51 °F 65 °F 88 °F (1938)
Min Temperature 28 °F 42 °F 22 °F (1925)
Degree Days  
Heating Degree Days 25 12  
Month to date heating degree days 102  
Since 1 July heating degree days 233  
Cooling Degree Days 0 0  
Month to date cooling degree days 8  
Year to date cooling degree days 819  
Moisture  
Dew Point 31 °F    
Average Humidity 75    
Maximum Humidity 97    
Minimum Humidity 40    
Precipitation  
Precipitation 0.26 in 0.08 in 4.78 in (1954)
Month to date precipitation 0.90  
Year to date precipitation 29.91  
Snow  
Snow 0.00 in 0.00 in T in (2009)
Month to date snowfall 0.0  
Since 1 July snowfall 0.0  
Since 1 September snowfall 0.0  
Snow Depth -    
Sea Level Pressure  
Sea Level Pressure 30.09 in    
Wind  
Wind Speed 9 mph (West)    
Max Wind Speed 21 mph    
Max Gust Speed 29 mph    
Visibility 10 miles    
Events      
T = Trace of Precipitation, MM = Missing Value Source: NWS Daily Summary

Daily Weather History Graph

Daily Weather History Graph

Search for Another Location

Airport or City:

Trip Planner

Search our weather history database for the weather conditions in past years. The results will help you decide how hot, cold, wet, or windy it might be!

Date:

Astronomy

Oct. 10, 2012 Rise Set
Actual Time 7:03 AM CDT 6:22 PM CDT
Civil Twilight 6:35 AM CDT 6:49 PM CDT
Nautical Twilight 6:03 AM CDT 7:22 PM CDT
Astronomical Twilight 5:31 AM CDT 7:54 PM CDT
Moon 1:35 AM CDT (10/10) 3:28 PM CDT (10/10)
Length of Visible Light 12h 14m
Length of Day
11h 18m
Waning Crescent, 27% of the Moon is Illuminated
Oct 10
Waning Crescent
Oct 15
New
Oct 21
First Quarter
Oct 29
Full
Nov 6
Last Quarter

Hourly Weather History & Observations

Time (CDT) Temp. Windchill Dew Point Humidity Pressure Visibility Wind Dir Wind Speed Gust Speed Precip Events Conditions
12:15 AM 41.2 °F 36.6 °F 39.6 °F 94% 29.94 in 10.0 mi West 6.9 mph - N/A   Clear
12:35 AM 40.3 °F 36.3 °F 38.8 °F 95% 29.94 in 10.0 mi West 5.8 mph - N/A   Clear
12:55 AM 39.7 °F 35.6 °F 38.7 °F 96% 29.94 in 10.0 mi West 5.8 mph - N/A   Clear
1:15 AM 39.2 °F 33.6 °F 38.3 °F 97% 29.95 in 10.0 mi West 8.1 mph - N/A   Clear
1:35 AM 39.2 °F 33.6 °F 38.1 °F 96% 29.95 in 10.0 mi West 8.1 mph - N/A   Clear
1:55 AM 38.8 °F 32.6 °F 37.2 °F 94% 29.96 in 10.0 mi WNW 9.2 mph - N/A   Clear
2:15 AM 38.3 °F 31.9 °F 36.0 °F 91% 29.97 in 10.0 mi West 9.2 mph - N/A   Clear
2:35 AM 37.4 °F 30.3 °F 35.6 °F 93% 29.97 in 10.0 mi WNW 10.4 mph - N/A   Clear
2:55 AM 36.5 °F 29.7 °F 34.5 °F 93% 29.97 in 10.0 mi West 9.2 mph - N/A   Clear
3:15 AM 36.0 °F 29.6 °F 33.8 °F 92% 29.97 in 10.0 mi West 8.1 mph - N/A   Clear
3:35 AM 35.6 °F 29.9 °F 33.3 °F 91% 29.98 in 10.0 mi West 6.9 mph - N/A   Clear
3:55 AM 34.9 °F 28.3 °F 32.9 °F 92% 29.99 in 10.0 mi West 8.1 mph - N/A   Clear
4:15 AM 34.2 °F 28.2 °F 32.4 °F 93% 29.99 in 10.0 mi West 6.9 mph - N/A   Clear
4:35 AM 33.8 °F 28.6 °F 32.2 °F 94% 29.99 in 10.0 mi West 5.8 mph - N/A   Clear
4:55 AM 33.8 °F 28.6 °F 32.2 °F 94% 29.99 in 10.0 mi WNW 5.8 mph - N/A   Clear
5:15 AM 33.4 °F 25.9 °F 32.0 °F 94% 30.00 in 10.0 mi West 9.2 mph - N/A   Clear
5:35 AM 33.4 °F 25.4 °F 32.0 °F 94% 30.02 in 10.0 mi West 10.4 mph - N/A   Clear
5:55 AM 33.3 °F 25.7 °F 31.8 °F 94% 30.03 in 10.0 mi West 9.2 mph - N/A   Clear
6:15 AM 33.1 °F 25.5 °F 31.8 °F 95% 30.04 in 10.0 mi West 9.2 mph - N/A   Clear
6:35 AM 33.1 °F 24.4 °F 31.6 °F 94% 30.05 in 10.0 mi West 11.5 mph - N/A   Clear
6:55 AM 32.9 °F 25.9 °F 31.1 °F 93% 30.05 in 10.0 mi West 8.1 mph - N/A   Clear
7:15 AM 32.9 °F 25.9 °F 31.1 °F 93% 30.06 in 10.0 mi West 8.1 mph - N/A   Clear
7:55 AM 33.6 °F 25.6 °F 31.5 °F 92% 30.08 in 10.0 mi West 10.4 mph - N/A   Clear
8:15 AM 34.3 °F 27.0 °F 32.0 °F 91% 30.09 in 10.0 mi West 9.2 mph - N/A   Clear
8:35 AM 35.8 °F 28.3 °F 32.4 °F 87% 30.10 in 10.0 mi West 10.4 mph - N/A   Clear
8:55 AM 37.0 °F 28.5 °F 32.7 °F 84% 30.11 in 10.0 mi West 13.8 mph - N/A   Clear
9:15 AM 38.3 °F 29.0 °F 32.5 °F 80% 30.12 in 10.0 mi West 17.3 mph - N/A   Clear
9:35 AM 39.7 °F 31.2 °F 32.9 °F 77% 30.13 in 10.0 mi WNW 16.1 mph 20.7 mph N/A   Clear
9:55 AM 40.6 °F 33.0 °F 33.1 °F 74% 30.13 in 10.0 mi WNW 13.8 mph 18.4 mph N/A   Clear
10:15 AM 41.9 °F 34.0 °F 32.4 °F 69% 30.13 in 10.0 mi WNW 16.1 mph - N/A   Clear
10:35 AM 42.4 °F 35.0 °F 32.0 °F 67% 30.13 in 10.0 mi WNW 15.0 mph 20.7 mph N/A   Clear
10:55 AM 43.3 °F 35.5 °F 32.0 °F 64% 30.14 in 10.0 mi WNW 17.3 mph 24.2 mph N/A   Clear
11:15 AM 45.3 °F 38.4 °F 32.4 °F 61% 30.14 in 10.0 mi NW 16.1 mph - N/A   Mostly Cloudy
11:55 AM 46.0 °F 39.3 °F 30.2 °F 54% 30.15 in 10.0 mi WNW 16.1 mph 20.7 mph N/A   Scattered Clouds
12:15 PM 46.8 °F - 29.7 °F 51% 30.15 in 10.0 mi WNW 18.4 mph 24.2 mph N/A   Clear
12:35 PM 46.4 °F 40.1 °F 29.7 °F 52% 30.14 in 10.0 mi WNW 15.0 mph 23.0 mph N/A   Mostly Cloudy
12:55 PM 47.8 °F - 30.6 °F 51% 30.14 in 10.0 mi West 13.8 mph 19.6 mph N/A   Overcast
1:15 PM 47.7 °F - 29.5 °F 49% 30.13 in 10.0 mi WNW 20.7 mph 25.3 mph N/A   Mostly Cloudy
1:35 PM 49.8 °F - 29.7 °F 46% 30.14 in 10.0 mi West 19.6 mph 28.8 mph N/A   Overcast
1:55 PM 48.0 °F - 28.9 °F 48% 30.14 in 10.0 mi West 17.3 mph 24.2 mph N/A   Mostly Cloudy
2:15 PM 49.5 °F - 29.8 °F 47% 30.14 in 10.0 mi WNW 12.7 mph - N/A   Mostly Cloudy
2:35 PM 50.0 °F - 29.1 °F 45% 30.14 in 10.0 mi West 18.4 mph 26.5 mph N/A   Mostly Cloudy
2:55 PM 49.5 °F - 29.1 °F 46% 30.14 in 10.0 mi West 16.1 mph - N/A   Scattered Clouds
3:15 PM 49.1 °F - 28.8 °F 45% 30.13 in 10.0 mi West 13.8 mph 24.2 mph N/A   Mostly Cloudy
3:35 PM 51.4 °F - 28.6 °F 41% 30.12 in 10.0 mi West 16.1 mph 20.7 mph N/A   Scattered Clouds
3:55 PM 51.1 °F - 27.9 °F 41% 30.12 in 10.0 mi West 16.1 mph 23.0 mph N/A   Scattered Clouds
4:15 PM 51.1 °F - 27.5 °F 40% 30.12 in 10.0 mi West 15.0 mph 21.9 mph N/A   Scattered Clouds
4:35 PM 51.1 °F - 27.5 °F 40% 30.12 in 10.0 mi WNW 15.0 mph 23.0 mph N/A   Clear
4:55 PM 50.5 °F - 27.9 °F 42% 30.12 in 10.0 mi West 11.5 mph - N/A   Clear
5:15 PM 50.4 °F - 28.2 °F 42% 30.12 in 10.0 mi West 12.7 mph - N/A   Clear
5:35 PM 49.5 °F - 28.2 °F 44% 30.13 in 10.0 mi West 12.7 mph - N/A   Clear
5:55 PM 48.2 °F - 27.7 °F 45% 30.13 in 10.0 mi West 9.2 mph - N/A   Clear
6:35 PM 42.8 °F 39.3 °F 28.9 °F 58% 30.14 in 10.0 mi West 5.8 mph - N/A   Clear
6:55 PM 41.0 °F 37.1 °F 29.3 °F 63% 30.15 in 10.0 mi West 5.8 mph - N/A   Clear
7:15 PM 38.1 °F 34.6 °F 29.7 °F 72% 30.16 in 10.0 mi WSW 4.6 mph - N/A   Clear
7:35 PM 38.7 °F 35.2 °F 29.1 °F 69% 30.16 in 10.0 mi WSW 4.6 mph - N/A   Clear
7:55 PM 37.0 °F 31.6 °F 29.3 °F 74% 30.16 in 10.0 mi SW 6.9 mph - N/A   Clear
8:15 PM 34.0 °F - 29.1 °F 82% 30.16 in 10.0 mi Calm Calm - N/A   Clear
8:35 PM 32.2 °F 28.9 °F 28.8 °F 87% 30.16 in 10.0 mi SSE 3.5 mph - N/A   Clear
8:55 PM 32.0 °F 27.5 °F 28.4 °F 87% 30.17 in 10.0 mi South 4.6 mph - N/A   Clear
9:15 PM 31.5 °F 28.1 °F 28.4 °F 88% 30.17 in 10.0 mi SSE 3.5 mph - N/A   Clear
9:35 PM 30.0 °F - 28.2 °F 93% 30.18 in 10.0 mi Calm Calm - N/A   Clear
9:55 PM 30.2 °F 24.3 °F 28.0 °F 92% 30.17 in 10.0 mi SSE 5.8 mph - N/A   Clear
10:15 PM 30.4 °F 23.6 °F 27.5 °F 89% 30.16 in 10.0 mi South 6.9 mph - N/A   Clear
10:35 PM 30.2 °F 25.4 °F 27.7 °F 90% 30.16 in 10.0 mi South 4.6 mph - N/A   Clear
10:55 PM 30.2 °F 25.4 °F 27.9 °F 91% 30.16 in 10.0 mi SSE 4.6 mph - N/A   Clear
11:15 PM 30.6 °F 27.1 °F 27.5 °F 88% 30.16 in 10.0 mi SSE 3.5 mph - N/A   Clear
11:35 PM 29.3 °F 23.2 °F 27.0 °F 91% 30.16 in 10.0 mi SSE 5.8 mph - N/A   Clear
11:55 PM 28.4 °F 22.2 °F 26.8 °F 94% 30.16 in 10.0 mi SSE 5.8 mph - N/A   Clear